Theta_e
317 315 315 316 315 315 314 310 306 306 305 305 305 304 304 306 305 305 305 305 306 307 307 307 306 305 308 311 311 309 310 310 308 309 309 312 314 314 315 314 313 313 313 312 310 308 308
318 316 314 314 314 315 312 310 306 306 305 305 304 304 303 305 305 305 304 305 306 307 307 308 306 306 311 311 308 308 308 308 307 308 308 310 313 312 313 313 314 313 312 310 308 308 308
318 317 316 315 314 314 309 307 306 306 305 305 304 304 303 304 305 304 304 305 306 306 306 308 307 306 311 311 307 306 306 306 307 307 308 308 309 311 311 312 309 310 312 311 309 309 310
318 316 315 314 313 314 310 306 306 305 305 304 304 303 303 303 305 305 305 305 305 306 306 308 306 310 311 306 306 305 305 305 306 307 307 307 307 310 310 310 311 312 313 314 311 309 310
316 316 314 313 314 313 312 307 306 305 304 304 304 303 302 302 305 305 305 305 305 306 306 306 308 309 311 305 306 305 306 306 307 307 308 308 310 311 310 313 314 313 314 314 313 310 311
316 315 311 312 312 312 311 308 305 305 304 304 303 302 301 301 305 305 305 305 306 307 308 307 306 311 307 308 306 307 306 307 309 310 311 312 312 312 312 313 316 314 314 312 313 312 311
314 312 311 311 311 309 307 305 304 304 303 302 302 301 300 300 305 305 305 307 308 308 307 310 310 309 307 306 306 307 306 309 309 309 310 311 312 312 312 313 310 311 313 313 311 310 313
314 310 310 310 309 307 306 304 303 302 301 300 300 299 299 299 305 305 306 308 307 308 311 306 306 307 306 307 309 308 306 310 310 310 311 311 311 311 309 310 310 311 313 313 309 308 310
312 310 309 307 306 304 303 302 300 299 298 298 298 298 298 299 305 305 306 306 307 308 311 308 306 308 308 308 309 309 308 309 310 310 311 312 310 308 309 309 310 311 313 312 313 309 308
311 307 305 304 303 301 299 298 297 297 296 296 296 297 298 300 304 304 306 305 306 307 310 309 308 308 307 309 310 307 307 309 309 311 311 310 307 308 309 310 310 312 309 309 310 314 320
306 304 304 304 302 301 300 300 300 298 301 299 296 296 298 303 305 306 305 305 306 307 316 310 308 306 307 310 309 308 306 309 311 309 311 311 308 308 310 310 308 311 307 309 309 312 313
305 305 305 304 303 300 301 302 305 304 305 304 301 297 301 306 306 305 305 306 307 310 316 310 308 309 309 309 309 308 308 307 306 308 307 306 303 306 308 306 306 306 308 308 308 310 323
304 301 299 299 301 300 298 297 297 298 302 305 305 301 305 306 307 305 306 309 312 312 308 310 310 309 310 309 309 309 309 310 312 312 311 307 306 305 305 309 307 307 312 319 317 319 317
300 301 303 305 304 303 304 303 304 300 300 300 301 302 306 306 305 305 307 310 312 309 309 308 308 309 310 309 309 309 309 310 307 308 311 312 312 307 304 308 314 309 315 327 316 312 310
304 304 305 304 300 300 300 303 304 304 304 304 304 307 307 305 305 306 310 313 309 308 306 308 307 310 310 309 309 309 309 311 310 307 314 312 308 302 304 305 307 309 311 305 310 303 312
305 305 304 303 299 300 299 301 304 305 304 305 306 307 309 305 306 308 311 314 309 305 305 305 311 310 311 309 308 309 309 309 309 306 305 308 310 303 304 304 305 308 305 311 313 316 313
305 304 304 303 302 301 300 301 302 301 306 306 307 310 306 305 308 310 313 314 308 302 304 305 307 307 307 307 308 309 309 306 306 306 305 306 311 305 304 307 312 307 313 307 310 307 315
303 303 303 302 302 301 301 301 302 299 305 308 306 311 305 305 312 309 310 307 302 303 302 303 303 304 305 305 307 307 308 305 305 306 309 305 310 309 306 299 299 303 310 313 313 310 304
302 302 301 301 301 301 301 300 301 302 305 306 308 309 304 305 313 311 309 306 305 303 303 303 304 303 303 304 308 305 304 303 303 305 307 306 310 308 306 304 301 306 306 303 302 307 309
301 301 301 300 300 300 300 300 300 303 305 306 308 311 307 306 306 308 307 309 309 306 304 303 302 303 303 303 303 306 306 304 303 305 305 305 305 313 314 312 308 307 305 301 309 313 311
301 301 300 300 300 299 299 299 299 305 306 306 307 309 305 310 309 306 307 307 309 309 306 305 305 304 304 305 304 305 306 305 306 307 302 306 310 305 303 303 303 304 306 302 305 309 315
300 300 300 300 299 299 299 299 298 305 306 306 310 310 307 308 305 306 308 307 307 306 307 307 306 305 304 305 305 305 306 306 307 304 304 299 307 301 301 297 296 303 301 304 303 299 297
299 299 300 300 299 298 298 298 297 297 305 303 303 302 309 308 306 307 308 307 307 306 303 300 304 304 304 303 298 296 298 299 303 305 303 302 300 302 302 294 292 297 297 301 302 300 298
299 299 299 299 299 298 298 298 297 294 295 298 298 299 308 309 305 306 304 304 305 305 305 298 296 301 295 293 293 294 296 296 297 295 297 297 298 297 297 292 298 301 286 292 301 296 294
298 298 298 299 299 299 298 297 297 296 293 294 295 297 302 303 299 298 299 299 297 296 297 296 294 292 293 292 295 294 293 294 296 293 293 293 296 296 299 296 296 293 290 293 297 302 294
298 298 297 297 297 297 297 297 296 295 293 292 291 294 297 302 298 294 297 296 298 297 296 293 291 290 292 294 295 299 296 295 296 296 292 292 293 298 295 299 299 295 294 291 291 303 290
297 296 296 296 296 296 296 296 296 295 293 292 291 291 293 299 293 293 296 296 293 294 297 293 293 293 291 295 296 295 294 293 298 297 296 298 298 298 295 299 296 292 295 291 299 300 289
296 296 295 295 295 295 295 295 295 294 292 291 291 291 291 296 292 290 289 292 293 294 297 292 294 292 292 296 296 296 295 293 295 294 295 297 298 297 294 296 298 293 292 297 293 289 289
294 295 295 295 294 294 294 294 294 293 292 290 290 290 290 293 290 287 286 287 287 288 290 289 292 291 295 296 293 292 293 288 291 296 289 297 296 298 296 296 289 287 289 286 288 289 288
Wind_Speed
12 12 13 13 12 12 12 12 12 11 11 12 12 13 13 13 9 7 6 6 6 6 6 7 5 5 5 4 4 8 10 9 10 12 9 7 10 5 5 5 6 4 4 4 2 3 2
13 12 12 12 11 12 12 12 11 11 11 11 12 12 13 14 12 7 6 5 5 4 5 7 7 7 3 5 4 8 8 9 8 10 8 6 5 3 3 3 6 4 4 4 3 3 2
12 13 12 12 12 11 11 12 12 12 12 12 12 12 13 12 12 8 5 5 5 4 4 6 7 6 3 4 5 8 9 7 10 8 5 4 4 3 6 5 3 5 4 2 5 4 3
11 13 13 13 13 13 12 11 11 12 13 13 13 13 13 13 10 9 6 5 4 4 5 6 7 3 4 3 7 11 10 8 8 5 3 6 4 4 1 6 3 4 2 5 4 6 3
8 12 13 13 13 13 14 12 12 12 12 13 13 13 13 12 11 8 6 3 1 4 6 7 5 3 3 5 5 10 10 8 8 6 5 7 2 3 4 5 3 4 5 7 3 6 3
9 11 12 12 12 12 13 15 14 14 13 14 14 14 13 12 10 5 2 3 7 6 8 5 2 3 4 3 4 7 8 13 4 7 5 2 2 5 4 7 9 8 5 4 5 7 5
8 11 12 12 11 12 13 13 14 15 15 15 15 14 13 11 9 3 8 6 3 3 5 5 5 1 5 4 6 3 6 7 5 3 7 4 7 13 18 15 1 3 4 4 2 2 5
10 11 12 12 12 13 14 14 14 14 15 16 16 15 14 11 7 4 8 3 3 2 5 7 1 1 3 6 4 4 9 7 6 8 8 5 13 10 2 8 5 4 5 5 2 2 4
11 12 12 13 14 14 14 14 15 15 15 16 16 15 13 10 7 4 7 6 2 1 4 3 5 5 4 8 4 12 10 5 5 8 13 10 1 4 6 7 9 8 12 7 3 4 1
10 11 11 12 13 13 14 14 14 14 15 17 17 16 13 7 2 2 3 6 7 2 4 5 6 4 4 5 4 2 6 2 3 11 8 7 3 5 6 7 9 8 6 4 7 6 4
10 10 11 13 14 15 15 17 16 15 16 19 19 17 12 5 3 3 1 2 5 2 5 6 4 3 3 5 8 2 1 1 6 6 6 4 6 6 5 1 6 1 3 5 3 4 1
9 11 13 14 14 15 16 17 18 20 18 18 24 17 10 6 7 4 3 6 1 3 8 4 5 6 7 3 3 4 3 3 2 4 3 3 1 1 2 3 2 12 7 5 3 2 3
11 11 12 14 15 15 16 18 17 17 21 15 26 14 8 6 2 5 7 3 4 7 2 6 5 7 9 6 5 6 8 7 6 6 7 3 2 2 2 6 5 2 6 2 2 3 5
11 12 12 13 15 17 18 18 18 18 20 17 18 11 9 11 6 8 8 3 9 5 11 3 4 6 8 8 5 7 8 10 5 2 4 9 6 8 2 1 5 8 3 4 6 5 3
11 13 13 13 18 19 20 19 18 20 16 15 12 6 5 7 10 14 5 4 7 6 1 7 4 5 7 5 5 7 10 7 9 12 7 7 4 2 2 0 1 6 6 2 6 1 2
14 14 15 16 17 21 23 21 17 15 17 11 2 4 2 7 12 6 6 8 6 1 2 2 7 9 10 9 9 11 11 3 5 6 1 5 4 0 2 1 3 2 4 4 0 5 6
15 16 16 17 18 21 23 21 18 15 12 7 3 2 1 7 8 3 7 6 6 2 2 4 3 3 4 7 9 7 5 2 3 6 3 4 1 3 3 7 7 4 3 1 1 1 4
15 16 17 17 19 21 21 21 19 15 5 2 2 2 1 4 3 1 5 2 1 1 2 4 3 3 7 7 8 7 9 1 6 9 8 4 4 4 2 2 2 2 2 5 4 6 0
17 18 18 19 21 22 22 22 20 16 5 1 3 2 3 6 3 3 5 4 2 2 3 1 1 3 1 4 4 5 3 2 4 6 7 7 3 4 1 1 1 5 4 2 3 1 6
18 19 20 20 22 24 24 24 21 10 4 1 2 1 2 0 2 5 2 5 3 5 5 2 2 2 1 3 0 4 3 1 2 2 2 5 2 3 5 3 4 5 7 6 2 4 6
19 20 21 22 23 23 24 26 23 5 12 12 2 1 1 1 3 5 4 2 5 4 6 4 4 8 4 4 3 5 4 3 1 5 2 2 5 3 3 5 2 1 7 11 10 4 7
20 20 21 23 24 25 26 26 23 3 8 2 3 3 1 2 2 3 7 5 12 5 8 5 6 3 7 5 4 7 8 6 4 4 4 2 3 2 2 3 3 3 4 9 8 3 4
19 21 21 22 24 26 27 28 27 11 3 1 1 0 1 2 2 5 4 3 5 6 2 2 3 4 4 1 2 3 5 7 5 6 5 4 6 4 3 2 1 5 12 14 7 6 7
20 22 23 23 25 26 27 27 28 20 10 0 1 1 1 3 3 4 2 2 3 3 2 3 1 2 3 8 8 7 11 11 10 9 3 6 4 1 3 2 5 1 1 3 10 4 10
21 21 22 24 25 26 27 27 26 26 12 9 3 1 2 3 2 3 3 2 3 2 2 2 2 2 9 2 2 3 1 1 4 6 5 3 4 3 4 5 4 2 5 7 7 4 14
22 22 23 24 24 26 26 27 26 25 19 4 12 2 1 1 1 1 1 3 2 2 2 2 3 4 1 1 2 4 5 3 4 2 3 3 4 1 3 4 6 1 2 3 2 4 9
22 22 22 24 25 26 25 25 24 24 22 6 6 9 0 1 2 2 1 2 2 2 2 2 4 3 2 2 2 4 3 1 5 8 5 4 2 7 5 5 6 2 5 4 5 1 9
21 21 22 24 25 26 26 25 25 24 21 10 2 11 2 0 2 4 5 2 1 1 3 4 4 2 2 4 3 2 3 4 3 3 5 7 8 5 3 3 8 5 5 5 3 5 7
20 21 22 23 24 26 26 24 23 23 20 12 1 9 4 1 2 4 8 7 3 3 2 1 2 1 3 2 1 2 2 2 1 3 1 3 3 3 7 2 3 3 4 3 2 6 5
Wind_Direction
349 351 347 347 350 350 347 345 350 352 354 352 352 348 344 337 324 302 283 280 280 258 237 215 204 182 157 204 243 164 171 178 174 165 170 173 173 169 193 170 159 205 172 164 130 139 141
343 348 347 339 344 346 345 342 345 346 349 348 346 345 345 342 329 304 283 278 277 252 240 220 196 177 207 229 163 168 176 170 188 175 179 174 201 187 132 170 212 152 154 144 161 172 188
337 342 339 339 339 341 341 339 340 340 340 341 340 340 341 343 338 316 283 273 268 254 224 210 191 175 225 248 174 167 164 178 183 185 164 179 169 186 149 140 148 130 152 169 190 181 213
328 342 338 335 334 335 335 334 334 338 335 334 335 337 337 338 338 324 299 270 258 234 205 187 180 202 255 180 170 164 161 148 158 156 144 153 145 105 71 125 107 176 202 207 144 174 186
320 337 337 333 329 334 330 330 333 334 331 331 331 329 333 334 333 324 305 304 203 164 168 162 157 223 235 154 193 175 172 150 128 110 96 121 87 96 138 184 169 203 223 210 178 203 175
313 337 335 332 332 331 329 328 329 327 328 328 326 327 326 328 328 321 226 127 112 114 130 131 115 213 168 201 159 162 161 148 125 132 111 124 125 183 178 195 218 202 210 212 212 178 208
319 330 331 334 331 329 329 327 327 326 326 325 323 323 322 322 323 297 151 127 182 182 220 210 178 176 140 113 122 157 145 141 120 156 177 179 204 209 207 213 235 155 195 200 135 138 212
327 332 335 334 333 333 331 329 328 327 326 323 322 321 320 317 315 262 185 227 271 13 260 218 198 202 144 166 130 175 165 170 185 180 144 162 230 219 139 183 182 181 194 200 128 124 228
337 335 337 335 334 334 332 332 333 333 330 326 320 317 316 315 306 224 217 222 261 218 261 203 197 179 175 173 178 178 184 160 195 162 192 207 140 162 165 173 188 211 219 206 240 148 89
330 339 339 340 339 334 333 336 335 332 337 332 323 316 313 307 258 214 235 247 231 206 260 188 198 187 143 162 186 118 187 170 187 198 173 234 129 153 176 202 191 215 198 164 156 177 229
339 341 340 337 336 336 334 330 328 336 322 335 326 311 311 261 299 210 267 154 178 196 256 127 150 117 133 188 124 141 122 133 185 159 176 182 171 161 190 211 185 160 132 136 138 152 240
349 343 340 338 338 335 331 322 319 319 321 323 326 308 305 258 231 228 129 133 224 216 236 159 136 164 156 159 129 126 144 64 110 121 51 84 42 10 111 75 9 143 110 84 83 126 225
353 350 346 340 341 339 334 327 323 314 305 311 302 303 270 227 253 155 153 97 225 218 110 178 178 174 178 156 156 172 169 177 177 162 190 134 162 129 178 110 129 210 163 136 204 200 236
360 355 355 353 353 349 342 334 326 325 315 303 308 292 264 222 226 161 122 205 232 232 224 111 132 139 183 158 184 167 162 196 218 144 152 187 210 182 146 231 189 190 195 191 209 198 164
14 6 2 351 351 351 348 341 334 332 326 316 312 268 234 221 197 173 183 184 237 234 89 154 129 167 195 194 185 175 198 205 195 185 201 180 191 100 49 47 300 167 215 75 103 47 259
18 8 1 357 354 353 348 344 337 336 345 322 241 224 192 168 174 148 198 219 225 241 47 13 226 201 190 182 183 201 178 181 189 194 72 181 120 52 111 181 60 248 133 135 270 190 218
15 6 360 357 353 351 346 343 340 337 343 336 237 230 80 159 155 183 219 217 236 143 152 205 274 198 224 182 200 196 186 150 165 146 152 145 142 128 158 204 176 152 193 65 89 291 218
14 8 4 359 355 354 352 349 342 345 7 274 274 210 53 212 63 3 249 267 349 148 212 234 258 246 216 173 185 208 209 211 157 158 172 177 111 154 163 43 331 322 227 190 212 190 195
20 13 7 3 360 358 358 353 343 334 195 199 340 76 51 353 177 194 297 283 277 201 228 195 297 247 344 177 209 210 174 43 158 170 163 187 181 132 146 180 209 226 184 135 107 102 189
23 16 10 9 6 3 0 358 352 352 170 202 352 133 92 131 23 155 220 268 309 11 334 331 320 280 157 188 85 181 156 134 177 168 126 162 155 214 204 116 114 187 186 190 198 177 163
23 18 15 13 10 10 5 4 4 53 125 129 24 92 301 186 215 191 197 279 199 230 222 216 225 236 182 194 159 188 150 144 81 139 61 207 197 188 94 87 80 199 184 178 200 182 203
27 24 19 16 13 12 11 12 17 57 162 356 159 158 147 235 211 259 200 220 234 196 165 224 230 215 195 213 217 197 161 192 182 158 168 152 169 138 169 87 49 257 215 207 223 227 269
27 25 21 18 18 15 16 16 20 36 195 304 326 304 212 174 186 177 211 224 240 167 147 1 253 159 214 248 90 74 70 62 97 155 158 171 150 160 205 101 204 273 217 191 194 196 152
27 25 21 19 18 17 18 18 19 23 33 349 40 286 167 261 223 215 214 218 232 233 205 140 312 180 126 122 114 86 70 76 75 58 49 145 120 41 120 140 230 298 82 276 218 197 200
27 25 23 21 19 16 15 15 17 18 25 48 21 277 176 264 233 253 223 196 142 74 87 108 32 347 154 135 106 134 70 101 57 41 24 353 139 128 170 211 320 215 196 172 177 256 192
27 26 24 21 18 16 13 12 14 13 14 21 30 13 225 231 216 324 170 185 208 151 115 54 43 87 309 145 162 190 203 176 183 144 27 73 65 174 158 214 233 43 164 197 199 272 171
25 23 18 17 15 13 12 10 11 12 12 14 22 15 250 232 64 332 219 202 129 118 106 129 155 170 357 188 190 200 213 114 173 181 164 152 165 214 195 239 283 151 148 169 182 308 158
21 17 14 13 12 10 7 6 6 6 8 9 355 12 22 197 50 11 10 334 335 213 176 143 134 188 135 204 205 199 205 185 182 137 178 173 161 181 146 205 259 143 130 206 66 77 127
14 10 11 9 7 5 4 1 0 359 1 5 333 357 34 74 94 88 82 62 40 349 329 165 336 174 165 147 202 127 161 166 78 212 54 219 208 188 206 205 69 63 39 58 16 124 121